DateTimeUTC,F1_A11,F1_S11,BsB_S11,BsG_S11,BsR_S11,BbsB_S11,BbsG_S11,BbsR_S11,BaB_A11,BaG_A11,BaR_A11,Tu_S11,T_S11,Uu_S11,U_S11,P_S11,T1_A11
2021-06-29T20:00:00Z,00000200,20000000,,,,,,,-000.10,-000.37,-000.10,19.6,26.3,10.1,06.7,0657.2,31.3
2021-06-29T20:01:00Z,00000200,20000000,,,,,,,-000.08,0000.07,-000.11,19.6,26.3,10.1,06.7,0657.2,31.2
2021-06-29T20:02:00Z,00000200,20000000,,,,,,,-000.20,-000.19,0000.01,19.6,26.3,09.8,06.5,0657.2,31.3
2021-06-29T20:03:00Z,00000200,60000000,,,,,,,0000.22,0000.24,0000.14,19.6,26.3,09.8,06.5,0657.2,31.2
2021-06-29T20:04:00Z,00000200,40000000,-000.05,0000.20,0000.02,-000.65,-000.11,0000.55,-000.26,-000.02,-000.35,19.7,26.1,09.6,06.5,0658.0,31.2
2021-06-29T20:05:00Z,00000200,00000000,0000.40,0000.44,0000.39,0000.17,0000.12,0000.01,0000.39,0000.28,0000.22,19.7,26.0,09.6,06.5,0658.1,31.2
2021-06-29T20:06:00Z,00000200,00000000,0000.21,0000.27,-000.18,-000.51,0000.02,0000.34,-000.06,-000.50,0000.06,19.7,26.0,09.7,06.6,0658.1,31.2
2021-06-29T20:07:00Z,00000200,00000000,0000.73,0000.08,0000.36,-000.10,0000.42,-000.07,-000.13,0000.04,-000.18,19.7,26.0,09.7,06.6,0658.1,31.2
2021-06-29T20:08:00Z,00000200,00000000,0000.28,0000.25,0000.23,-000.46,0000.10,0000.23,0000.03,0000.17,0000.20,19.7,26.0,09.7,06.6,0658.1,31.2
2021-06-29T20:09:00Z,00000200,00000000,0000.75,0000.42,0000.22,-000.46,0000.06,0000.06,0000.26,0000.22,-000.22,19.7,26.0,09.8,06.6,0658.1,31.3
2021-06-29T20:10:00Z,00000200,00000000,-000.07,-000.09,0000.14,-000.43,0000.24,0000.33,-000.33,-000.16,0000.17,19.7,26.0,09.8,06.7,0658.1,31.2
2021-06-29T20:11:00Z,00000200,00000000,0000.63,0000.42,0000.25,-000.10,0000.12,0000.21,0000.08,0000.22,-000.22,19.7,26.0,09.7,06.6,0658.1,31.2
2021-06-29T20:12:00Z,00000200,00000000,0000.82,0000.24,0000.21,0000.08,0000.32,0000.08,0000.01,-000.56,-000.10,19.6,26.0,09.8,06.7,0658.1,31.3
2021-06-29T20:13:00Z,00000200,00000000,0000.29,0000.35,-000.12,0000.17,0000.22,0000.05,0000.09,0000.53,0000.39,19.6,26.0,09.9,06.7,0658.2,31.2
2021-06-29T20:14:00Z,00000200,00000000,0000.76,0000.19,0000.36,-000.38,0000.31,0000.12,0000.01,-000.03,0000.15,19.6,26.0,09.7,06.6,0658.1,31.2
2021-06-29T20:15:00Z,00000200,00000000,0000.28,0000.09,-000.00,0000.29,0000.03,-000.01,-000.13,-000.08,-000.03,19.6,26.0,09.7,06.7,0658.1,31.2
2021-06-29T20:16:00Z,00000200,00000000,0000.50,0000.28,-000.17,-000.26,0000.16,0000.38,0000.20,0000.20,-000.01,19.6,25.9,09.8,06.7,0658.1,31.2
2021-06-29T20:17:00Z,00000200,00000000,0000.46,-000.00,0000.17,-000.37,0000.39,0000.00,-000.02,-000.37,-000.19,19.6,25.9,09.8,06.7,0658.1,31.2
2021-06-29T20:18:00Z,00000200,00000000,0000.59,0000.19,0000.06,-000.62,0000.25,0000.32,-000.12,0000.06,0000.07,19.6,25.9,09.8,06.7,0658.1,31.2
2021-06-29T20:19:00Z,00000200,00000000,0000.11,0000.12,0000.31,0000.01,0000.07,0000.01,-000.13,0000.20,0000.31,19.6,25.9,09.8,06.7,0658.1,31.2
2021-06-29T20:20:00Z,00000200,00000000,0000.70,0000.47,0000.16,0000.22,0000.20,0000.32,0000.18,-000.18,-000.32,19.6,25.9,09.8,06.7,0658.1,31.3
2021-06-29T20:21:00Z,00000200,00000000,0000.25,0000.38,0000.24,0000.05,0000.25,0000.20,0000.08,0000.08,0000.00,19.6,25.9,09.8,06.7,0658.1,31.2
2021-06-29T20:22:00Z,00000200,00000000,0001.05,0000.10,0000.20,-000.06,0000.32,0000.04,-000.03,0000.08,0000.26,19.6,25.9,09.7,06.6,0658.1,31.2
2021-06-29T20:23:00Z,00000200,00000000,0000.63,0000.33,-000.11,0000.06,0000.21,0000.25,-000.13,0000.01,-000.41,19.6,25.9,09.8,06.7,0658.1,31.2
2021-06-29T20:24:00Z,00000200,00000000,0000.34,0000.05,0000.02,-000.09,0000.34,-000.04,0000.39,-000.05,0000.13,19.6,25.9,09.9,06.7,0658.1,31.2
2021-06-29T20:25:00Z,00000200,00000000,0000.48,0000.40,-000.06,0000.15,-000.23,0000.38,-000.16,-000.03,0000.17,19.6,25.9,09.8,06.7,0658.1,31.2
2021-06-29T20:26:00Z,00000200,00000000,0000.70,0000.11,0000.01,-000.18,0000.03,0000.40,-000.17,-000.00,-000.02,19.6,25.9,09.9,06.7,0658.1,31.2
2021-06-29T20:27:00Z,00000200,00000000,0000.16,0000.37,0000.21,-000.10,0000.21,0000.21,0000.06,-000.04,-000.06,19.6,25.9,09.7,06.6,0658.1,31.2
2021-06-29T20:28:00Z,00000200,00000000,0000.38,0000.19,0000.05,-000.90,0000.22,0000.24,0000.27,0000.19,0000.36,19.6,25.9,09.8,06.7,0658.1,31.2
2021-06-29T20:29:00Z,00000200,00000000,0000.01,0000.18,0000.09,-000.28,0000.22,-000.06,0000.01,-000.05,-000.10,19.6,25.9,09.8,06.7,0658.1,31.2
2021-06-29T20:30:00Z,00000200,00000000,0000.45,0000.15,0000.13,-000.18,0000.33,0000.18,0000.27,0000.16,0000.08,19.6,25.9,09.9,06.7,0658.0,31.2
2021-06-29T20:31:00Z,00000200,00000000,0001.03,0000.22,0000.07,-000.28,0000.03,0000.25,-000.67,-000.28,-000.05,19.5,25.9,09.9,06.7,0658.0,31.2
2021-06-29T20:32:00Z,00000200,00000000,0000.92,-000.14,0000.16,0000.16,0000.11,0000.10,-000.04,0000.12,-000.39,19.5,25.8,09.7,06.6,0658.1,31.2
2021-06-29T20:33:00Z,00000200,00000000,0000.78,0000.35,0000.15,0000.02,0000.28,0000.16,0000.52,0000.33,0000.45,19.5,25.9,09.8,06.7,0658.1,31.2
2021-06-29T20:34:00Z,00000200,00000000,0000.15,0000.00,0000.13,-000.56,0000.07,0000.30,-000.41,-000.14,0000.07,19.5,25.8,09.8,06.7,0658.1,31.2
2021-06-29T20:35:00Z,00000200,00000000,-000.04,-000.04,-000.16,-000.01,0000.38,-000.07,-000.00,-000.10,-000.06,19.5,25.8,09.6,06.5,0658.0,31.2
2021-06-29T20:36:00Z,00000200,00000000,0000.45,-000.07,0000.06,-000.38,0000.07,0000.24,-000.19,-000.09,-000.25,19.5,25.8,09.5,06.5,0658.0,31.2
2021-06-29T20:37:00Z,00000200,00000000,-000.10,0000.20,-000.01,-000.26,0000.05,0000.19,0000.28,-000.04,-000.07,19.5,25.8,09.6,06.5,0658.0,31.2
2021-06-29T20:38:00Z,00000200,00000000,0000.24,-000.01,-000.01,-000.08,-000.05,-000.04,-000.28,-000.33,-000.26,19.5,25.8,09.4,06.4,0658.0,31.2
2021-06-29T20:39:00Z,00000200,00000000,0000.31,-000.01,0000.22,-000.23,0000.01,0000.28,-000.10,0000.08,-000.00,19.5,25.8,09.3,06.3,0658.0,31.2
2021-06-29T20:40:00Z,00000200,00000000,0000.28,0000.14,0000.02,0000.26,0000.31,0000.22,-000.06,-000.37,0000.37,19.5,25.8,09.2,06.3,0658.0,31.2
2021-06-29T20:41:00Z,00000200,00000000,0000.60,0000.36,-000.19,-000.12,0000.07,-000.18,0000.31,0000.46,-000.34,19.5,25.8,09.3,06.3,0658.0,31.2
2021-06-29T20:42:00Z,00000200,00000000,-000.18,0000.33,0000.16,-000.08,0000.26,0000.06,-000.15,-000.05,0000.10,19.5,25.8,09.3,06.3,0658.1,31.2
2021-06-29T20:43:00Z,00000200,00000000,0000.56,-000.07,0000.21,-000.12,0000.21,0000.16,-000.07,0000.10,-000.06,19.4,25.8,09.4,06.4,0658.1,31.2
2021-06-29T20:44:00Z,00000200,00000000,0000.53,0000.05,-000.15,-000.42,0000.05,0000.04,0000.13,-000.32,-000.02,19.4,25.8,09.2,06.3,0658.1,31.2
2021-06-29T20:45:00Z,00000200,00000000,-000.03,0000.19,0000.20,-000.23,0000.13,0000.07,-000.23,-000.01,0000.05,19.4,25.8,09.4,06.4,0658.0,31.2
2021-06-29T20:46:00Z,00000200,00000000,-000.03,0000.02,0000.31,-000.55,0000.14,0000.06,0000.20,0000.31,-000.01,19.4,25.7,09.5,06.4,0658.1,31.2
2021-06-29T20:47:00Z,00000200,00000000,0000.12,-000.05,0000.19,-000.28,0000.33,0000.14,-000.34,-000.09,-000.10,19.4,25.7,09.6,06.5,0658.1,31.2
2021-06-29T20:48:00Z,00000200,00000000,0000.07,0000.06,0000.27,-000.19,0000.17,0000.22,0000.23,-000.33,0000.17,19.4,25.7,09.6,06.5,0658.1,31.2
2021-06-29T20:49:00Z,00000200,00000000,0000.57,-000.19,0000.17,-000.15,0000.32,-000.02,0000.11,0000.30,0000.15,19.4,25.7,09.6,06.5,0658.1,31.2
2021-06-29T20:50:00Z,00000200,00000000,0000.38,0000.18,0000.28,-000.08,-000.00,0000.22,-000.05,0000.12,-000.20,19.4,25.7,09.6,06.5,0658.1,31.2
2021-06-29T20:51:00Z,00000200,00000000,0000.57,0000.05,0000.10,-000.42,0000.17,-000.00,0000.11,-000.01,0000.20,19.4,25.7,09.7,06.6,0658.1,31.2
2021-06-29T20:52:00Z,00000200,00000000,-000.14,0000.26,0000.12,-000.15,0000.06,0000.34,-000.14,-000.22,-000.05,19.4,25.7,09.6,06.5,0658.1,31.2
2021-06-29T20:53:00Z,00000200,00000000,0000.36,-000.18,0000.42,-000.16,0000.34,0000.04,0000.24,0000.25,-000.07,19.4,25.7,09.7,06.6,0658.1,31.2
2021-06-29T20:54:00Z,00000200,00000000,0000.07,-000.10,-000.29,-000.15,0000.31,-000.33,-000.16,-000.13,-000.01,19.4,25.7,09.6,06.5,0658.1,31.2
2021-06-29T20:55:00Z,00000200,00000000,0000.21,0000.17,0000.02,-000.29,0000.24,0000.36,-000.12,-000.15,-000.02,19.4,25.7,09.6,06.5,0658.1,31.3
2021-06-29T20:56:00Z,00000200,00000000,-000.07,0000.51,0000.46,0000.34,0000.06,0000.39,-000.08,-000.09,0000.09,19.4,25.7,09.6,06.5,0658.1,31.2
2021-06-29T20:57:00Z,00000200,40000000,,,,,,,0000.03,0000.40,0000.02,19.4,25.8,09.9,06.7,0658.2,31.2
2021-06-29T20:58:00Z,00000200,60000000,,,,,,,-000.01,-000.30,-000.14,19.2,25.9,09.8,06.5,0657.1,31.2
2021-06-29T20:59:00Z,00000200,20000000,,,,,,,0000.11,0000.39,-000.03,19.2,26.0,09.5,06.3,0657.1,31.2
